Weather History for KMKC - March, 2013

Change the Weather History Date:

Friday, March 8, 2013

  Actual Average (KMCI) Record (KMCI)
Temperature  
Mean Temperature 44 °F 41 °F  
Max Temperature 55 °F 52 °F 79 °F (2006)
Min Temperature 32 °F 31 °F 0 °F (1996)
Degree Days  
Heating Degree Days 22 24  
Month to date heating degree days 201  
Since 1 July heating degree days 4246  
Cooling Degree Days 0 0  
Month to date cooling degree days 0  
Year to date cooling degree days 0  
Moisture  
Dew Point 32 °F    
Average Humidity 61    
Maximum Humidity 79    
Minimum Humidity 43    
Precipitation  
Precipitation 0.00 in 0.06 in 1.58 in (2009)
Month to date precipitation 0.52  
Year to date precipitation 3.05  
Snow  
Snow 0.00 in 0.10 in 4.70 in (1924)
Month to date snowfall 0.7  
Since 1 July snowfall 16.9  
Snow Depth -    
Sea Level Pressure  
Sea Level Pressure 30.14 in    
Wind  
Wind Speed 8 mph (ESE)    
Max Wind Speed 14 mph    
Max Gust Speed 21 mph    
Visibility 9 miles    
Events Rain    
T = Trace of Precipitation, MM = Missing Value Source: NWS Daily Summary

Daily Weather History Graph

Daily Weather History Graph

Search for Another Location

Airport or City:

Trip Planner

Search our weather history database for the weather conditions in past years. The results will help you decide how hot, cold, wet, or windy it might be!

Date:

Astronomy

Mar. 08, 2013 Rise Set
Actual Time 6:40 AM CST 6:18 PM CST
Civil Twilight 6:13 AM CST 6:45 PM CST
Nautical Twilight 5:42 AM CST 7:16 PM CST
Astronomical Twilight 5:11 AM CST 7:47 PM CST
Moon 4:23 AM CST (3/8) 3:15 PM CST (3/8)
Length of Visible Light 12h 31m
Length of Day
11h 38m
Waning Crescent, 11% of the Moon is Illuminated
Mar 8
Waning Crescent
Mar 11
New
Mar 19
First Quarter
Mar 27
Full
Apr 2
Last Quarter

Hourly Weather History & Observations

Time (CST) Temp. Windchill Dew Point Humidity Pressure Visibility Wind Dir Wind Speed Gust Speed Precip Events Conditions
12:54 AM 34.0 °F 28.0 °F 27.0 °F 75% 30.23 in 9.0 mi ENE 6.9 mph - N/A   Clear
1:54 AM 33.1 °F 27.7 °F 26.1 °F 75% 30.24 in 10.0 mi ENE 5.8 mph - N/A   Clear
2:54 AM 33.1 °F 26.9 °F 26.1 °F 75% 30.23 in 9.0 mi ENE 6.9 mph - N/A   Clear
3:54 AM 33.1 °F 26.1 °F 26.1 °F 75% 30.21 in 8.0 mi East 8.1 mph - N/A   Clear
4:54 AM 32.0 °F 24.8 °F 26.1 °F 79% 30.20 in 8.0 mi ENE 8.1 mph - N/A   Clear
5:54 AM 33.8 °F 27.0 °F 26.6 °F 75% 30.20 in 8.0 mi ENE 8.1 mph - N/A   Clear
6:54 AM 34.0 °F 28.0 °F 27.0 °F 75% 30.22 in 7.0 mi ENE 6.9 mph - N/A   Clear
7:54 AM 37.0 °F 31.0 °F 28.9 °F 73% 30.22 in 7.0 mi East 8.1 mph - N/A   Clear
8:54 AM 43.0 °F 40.3 °F 30.9 °F 62% 30.22 in 7.0 mi ENE 4.6 mph - N/A   Clear
9:54 AM 48.0 °F - 32.0 °F 54% 30.19 in 10.0 mi SE 6.9 mph - N/A   Clear
10:54 AM 51.8 °F - 33.8 °F 50% 30.18 in 10.0 mi ESE 8.1 mph - N/A   Clear
11:54 AM 55.0 °F - 33.1 °F 43% 30.18 in 10.0 mi SSE 9.2 mph 17.3 mph N/A   Clear
12:54 PM 55.0 °F - 35.1 °F 47% 30.16 in 10.0 mi SE 11.5 mph 20.7 mph N/A   Scattered Clouds
1:54 PM 55.9 °F - 36.0 °F 47% 30.12 in 10.0 mi SE 12.7 mph - N/A   Mostly Cloudy
2:54 PM 55.0 °F - 36.0 °F 49% 30.11 in 10.0 mi ESE 12.7 mph 19.6 mph N/A   Mostly Cloudy
3:54 PM 52.0 °F - 35.1 °F 53% 30.08 in 10.0 mi East 13.8 mph - N/A   Mostly Cloudy
4:54 PM 51.1 °F - 34.0 °F 52% 30.06 in 10.0 mi East 10.4 mph - N/A   Mostly Cloudy
5:54 PM 50.0 °F - 34.0 °F 54% 30.06 in 10.0 mi ESE 10.4 mph - N/A   Partly Cloudy
6:54 PM 51.1 °F - 34.0 °F 52% 30.06 in 10.0 mi ESE 10.4 mph - N/A   Overcast
7:54 PM 51.1 °F - 35.1 °F 54% 30.06 in 10.0 mi ESE 11.5 mph - 0.00 in Rain Light Rain
8:54 PM 51.1 °F - 35.1 °F 54% 30.05 in 10.0 mi ESE 9.2 mph - 0.00 in Rain Light Rain
9:54 PM 50.0 °F - 37.0 °F 61% 30.04 in 10.0 mi ESE 8.1 mph - 0.00 in Rain Light Rain
10:54 PM 50.0 °F - 37.0 °F 61% 30.02 in 10.0 mi SE 9.2 mph 18.4 mph 0.00 in   Overcast
11:54 PM 50.0 °F - 37.0 °F 61% 29.98 in 10.0 mi SSE 8.1 mph 19.6 mph 0.00 in   Overcast